Year,Month,Day,Hour,Minute,Value (Times are PST for temperature in C)
2018,07,22,00,00,16.80
2018,07,22,00,01,16.80
2018,07,22,00,02,16.80
2018,07,22,00,03,16.90
2018,07,22,00,04,16.80
2018,07,22,00,05,16.80
2018,07,22,00,06,16.80
2018,07,22,00,07,16.80
2018,07,22,00,08,16.80
2018,07,22,00,09,16.80
2018,07,22,00,10,16.80
2018,07,22,00,11,16.80
2018,07,22,00,12,16.80
2018,07,22,00,13,16.80
2018,07,22,00,14,16.80
2018,07,22,00,15,16.80
2018,07,22,00,16,16.80
2018,07,22,00,17,16.80
2018,07,22,00,18,16.70
2018,07,22,00,19,16.70
2018,07,22,00,20,16.70
2018,07,22,00,21,16.70
2018,07,22,00,22,16.70
2018,07,22,00,23,16.70
2018,07,22,00,24,16.70
2018,07,22,00,25,16.70
2018,07,22,00,26,16.70
2018,07,22,00,27,16.70
2018,07,22,00,28,16.70
2018,07,22,00,29,16.70
2018,07,22,00,30,16.70
2018,07,22,00,31,16.70
2018,07,22,00,32,16.70
2018,07,22,00,33,16.60
2018,07,22,00,34,16.60
2018,07,22,00,35,16.60
2018,07,22,00,36,16.60
2018,07,22,00,37,16.60
2018,07,22,00,38,16.60
2018,07,22,00,39,16.60
2018,07,22,00,40,16.60
2018,07,22,00,41,16.60
2018,07,22,00,42,16.50
2018,07,22,00,43,16.50
2018,07,22,00,44,16.50
2018,07,22,00,45,16.50
2018,07,22,00,46,16.50
2018,07,22,00,47,16.50
2018,07,22,00,48,16.50
2018,07,22,00,49,16.50
2018,07,22,00,50,16.40
2018,07,22,00,51,16.40
2018,07,22,00,52,16.40
2018,07,22,00,53,16.40
2018,07,22,00,54,16.40
2018,07,22,00,55,16.40
2018,07,22,00,56,16.30
2018,07,22,00,57,16.30
2018,07,22,00,58,16.30
2018,07,22,00,59,16.30
2018,07,22,01,00,16.30
2018,07,22,01,01,16.30
2018,07,22,01,02,16.30
2018,07,22,01,03,16.20
2018,07,22,01,04,16.20
2018,07,22,01,05,16.20
2018,07,22,01,06,16.20
2018,07,22,01,07,16.20
2018,07,22,01,08,16.10
2018,07,22,01,09,16.10
2018,07,22,01,10,16.10
2018,07,22,01,11,16.10
2018,07,22,01,12,16.10
2018,07,22,01,13,16.00
2018,07,22,01,14,16.00
2018,07,22,01,15,16.00
2018,07,22,01,16,16.00
2018,07,22,01,17,16.00
2018,07,22,01,18,15.90
2018,07,22,01,19,15.90
2018,07,22,01,20,15.90
2018,07,22,01,21,15.90
2018,07,22,01,22,15.90
2018,07,22,01,23,15.90
2018,07,22,01,24,15.90
2018,07,22,01,25,15.80
2018,07,22,01,26,15.80
2018,07,22,01,27,15.80
2018,07,22,01,28,15.80
2018,07,22,01,29,15.80
2018,07,22,01,30,15.80
2018,07,22,01,31,15.80
2018,07,22,01,32,15.80
2018,07,22,01,33,15.70
2018,07,22,01,34,15.70
2018,07,22,01,35,15.70
2018,07,22,01,36,15.70
2018,07,22,01,37,15.70
2018,07,22,01,38,15.70
2018,07,22,01,39,15.70
2018,07,22,01,40,15.70
2018,07,22,01,41,15.60
2018,07,22,01,42,15.60
2018,07,22,01,43,15.60
2018,07,22,01,44,15.60
2018,07,22,01,45,15.60
2018,07,22,01,46,15.60
2018,07,22,01,47,15.60
2018,07,22,01,48,15.60
2018,07,22,01,49,15.60
2018,07,22,01,50,15.60
2018,07,22,01,51,15.70
2018,07,22,01,52,15.70
2018,07,22,01,53,15.70
2018,07,22,01,54,15.70
2018,07,22,01,55,15.70
2018,07,22,01,56,15.70
2018,07,22,01,57,15.70
2018,07,22,01,58,15.70
2018,07,22,01,59,15.60
2018,07,22,02,00,15.60
2018,07,22,02,01,15.70
2018,07,22,02,02,15.70
2018,07,22,02,03,15.60
2018,07,22,02,04,15.60
2018,07,22,02,05,15.60
2018,07,22,02,06,15.70
2018,07,22,02,07,15.70
2018,07,22,02,08,15.70
2018,07,22,02,09,15.70
2018,07,22,02,10,15.70
2018,07,22,02,11,15.70
2018,07,22,02,12,15.70
2018,07,22,02,13,15.70
2018,07,22,02,14,15.70
2018,07,22,02,15,15.70
2018,07,22,02,16,15.70
2018,07,22,02,17,15.70
2018,07,22,02,18,15.70
2018,07,22,02,19,15.70
2018,07,22,02,20,15.70
2018,07,22,02,21,15.70
2018,07,22,02,22,15.60
2018,07,22,02,23,15.70
2018,07,22,02,24,15.70
2018,07,22,02,25,15.70
2018,07,22,02,26,15.70
2018,07,22,02,27,15.70
2018,07,22,02,28,15.70
2018,07,22,02,29,15.70
2018,07,22,02,30,15.70
2018,07,22,02,31,15.70
2018,07,22,02,32,15.70
2018,07,22,02,33,15.70
2018,07,22,02,34,15.70
2018,07,22,02,35,15.70
2018,07,22,02,36,15.70
2018,07,22,02,37,15.70
2018,07,22,02,38,15.70
2018,07,22,02,39,15.70
2018,07,22,02,40,15.70
2018,07,22,02,41,15.70
2018,07,22,02,42,15.70
2018,07,22,02,43,15.70
2018,07,22,02,44,15.60
2018,07,22,02,45,15.60
2018,07,22,02,46,15.60
2018,07,22,02,47,15.70
2018,07,22,02,48,15.60
2018,07,22,02,49,15.70
2018,07,22,02,50,15.60
2018,07,22,02,51,15.70
2018,07,22,02,52,15.60
2018,07,22,02,53,15.60
2018,07,22,02,54,15.60
2018,07,22,02,55,15.60
2018,07,22,02,56,15.60
2018,07,22,02,57,15.60
2018,07,22,02,58,15.60
2018,07,22,02,59,15.60
2018,07,22,03,00,15.60
2018,07,22,03,01,15.60
2018,07,22,03,02,15.60
2018,07,22,03,03,15.60
2018,07,22,03,04,15.60
2018,07,22,03,05,15.60
2018,07,22,03,06,15.60
2018,07,22,03,07,15.60
2018,07,22,03,08,15.60
2018,07,22,03,09,15.60
2018,07,22,03,10,15.60
2018,07,22,03,11,15.60
2018,07,22,03,12,15.70
2018,07,22,03,13,15.70
2018,07,22,03,14,15.70
2018,07,22,03,15,15.70
2018,07,22,03,16,15.70
2018,07,22,03,17,15.70
2018,07,22,03,18,15.70
2018,07,22,03,19,15.70
2018,07,22,03,20,15.70
2018,07,22,03,21,15.70
2018,07,22,03,22,15.70
2018,07,22,03,23,15.70
2018,07,22,03,24,15.70
2018,07,22,03,25,15.70
2018,07,22,03,26,15.70
2018,07,22,03,27,15.60
2018,07,22,03,28,15.60
2018,07,22,03,29,15.60
2018,07,22,03,30,15.60
2018,07,22,03,31,15.60
2018,07,22,03,32,15.60
2018,07,22,03,33,15.60
2018,07,22,03,34,15.60
2018,07,22,03,35,15.60
2018,07,22,03,36,15.60
2018,07,22,03,37,15.50
2018,07,22,03,38,15.50
2018,07,22,03,39,15.50
2018,07,22,03,40,15.50
2018,07,22,03,41,15.50
2018,07,22,03,42,15.50
2018,07,22,03,43,15.50
2018,07,22,03,44,15.40
2018,07,22,03,45,15.40
2018,07,22,03,46,15.40
2018,07,22,03,47,15.40
2018,07,22,03,48,15.40
2018,07,22,03,49,15.40
2018,07,22,03,50,15.40
2018,07,22,03,51,15.30
2018,07,22,03,52,15.30
2018,07,22,03,53,15.30
2018,07,22,03,54,15.30
2018,07,22,03,55,15.30
2018,07,22,03,56,15.30
2018,07,22,03,57,15.30
2018,07,22,03,58,15.30
2018,07,22,03,59,15.20
2018,07,22,04,00,15.20
2018,07,22,04,01,15.20
2018,07,22,04,02,15.20
2018,07,22,04,03,15.20
2018,07,22,04,04,15.20
2018,07,22,04,05,15.20
2018,07,22,04,06,15.10
2018,07,22,04,07,15.10
2018,07,22,04,08,15.10
2018,07,22,04,09,15.10
2018,07,22,04,10,15.10
2018,07,22,04,11,15.10
2018,07,22,04,12,15.10
2018,07,22,04,13,15.00
2018,07,22,04,14,15.00
2018,07,22,04,15,15.00
2018,07,22,04,16,15.00
2018,07,22,04,17,15.00
2018,07,22,04,18,15.00
2018,07,22,04,19,14.90
2018,07,22,04,20,14.90
2018,07,22,04,21,14.90
2018,07,22,04,22,14.90
2018,07,22,04,23,14.90
2018,07,22,04,24,14.80
2018,07,22,04,25,14.80
2018,07,22,04,26,14.80
2018,07,22,04,27,14.80
2018,07,22,04,28,14.80
2018,07,22,04,29,14.80
2018,07,22,04,30,14.80
2018,07,22,04,31,14.80
2018,07,22,04,32,14.80
2018,07,22,04,33,14.80
2018,07,22,04,34,14.70
2018,07,22,04,35,14.70
2018,07,22,04,36,14.70
2018,07,22,04,37,14.70
2018,07,22,04,38,14.70
2018,07,22,04,39,14.70
2018,07,22,04,40,14.70
2018,07,22,04,41,14.70
2018,07,22,04,42,14.60
2018,07,22,04,43,14.60
2018,07,22,04,44,14.60
2018,07,22,04,45,14.60
2018,07,22,04,46,14.60
2018,07,22,04,47,14.60
2018,07,22,04,48,14.60
2018,07,22,04,49,14.60
2018,07,22,04,50,14.60
2018,07,22,04,51,14.60
2018,07,22,04,52,14.50
2018,07,22,04,53,14.50
2018,07,22,04,54,14.50
2018,07,22,04,55,14.50
2018,07,22,04,56,14.50
2018,07,22,04,57,14.50
2018,07,22,04,58,14.50
2018,07,22,04,59,14.50
2018,07,22,05,00,14.50
2018,07,22,05,01,14.50
2018,07,22,05,02,14.50
2018,07,22,05,03,14.50
2018,07,22,05,04,14.50
2018,07,22,05,05,14.60
2018,07,22,05,06,14.60
2018,07,22,05,07,14.60
2018,07,22,05,08,14.60
2018,07,22,05,09,14.60
2018,07,22,05,10,14.60
2018,07,22,05,11,14.60
2018,07,22,05,12,14.60
2018,07,22,05,13,14.70
2018,07,22,05,14,14.70
2018,07,22,05,15,14.70
2018,07,22,05,16,14.70
2018,07,22,05,17,14.70
2018,07,22,05,18,14.60
2018,07,22,05,19,14.60
2018,07,22,05,20,14.60
2018,07,22,05,21,14.60
2018,07,22,05,22,14.60
2018,07,22,05,23,14.60
2018,07,22,05,24,14.60
2018,07,22,05,25,14.60
2018,07,22,05,26,14.60
2018,07,22,05,27,14.60
2018,07,22,05,28,14.60
2018,07,22,05,29,14.60
2018,07,22,05,30,14.60
2018,07,22,05,31,14.60
2018,07,22,05,32,14.50
2018,07,22,05,33,14.50
2018,07,22,05,34,14.50
2018,07,22,05,35,14.50
2018,07,22,05,36,14.50
2018,07,22,05,37,14.40
2018,07,22,05,38,14.40
2018,07,22,05,39,14.40
2018,07,22,05,40,14.40
2018,07,22,05,41,14.40
2018,07,22,05,42,14.40
2018,07,22,05,43,14.40
2018,07,22,05,44,14.40
2018,07,22,05,45,14.40
2018,07,22,05,46,14.40
2018,07,22,05,47,14.40
2018,07,22,05,48,14.40
2018,07,22,05,49,14.50
2018,07,22,05,50,14.50
2018,07,22,05,51,14.50
2018,07,22,05,52,14.50
2018,07,22,05,53,14.50
2018,07,22,05,54,14.50
2018,07,22,05,55,14.60
2018,07,22,05,56,14.60
2018,07,22,05,57,14.60
2018,07,22,05,58,14.60
2018,07,22,05,59,14.50
2018,07,22,06,00,14.60
2018,07,22,06,01,14.50
2018,07,22,06,02,14.60
2018,07,22,06,03,14.60
2018,07,22,06,04,14.60
2018,07,22,06,05,14.60
2018,07,22,06,06,14.60
2018,07,22,06,07,14.60
2018,07,22,06,08,14.60
2018,07,22,06,09,14.60
2018,07,22,06,10,14.60
2018,07,22,06,11,14.60
2018,07,22,06,12,14.60
2018,07,22,06,13,14.60
2018,07,22,06,14,14.60
2018,07,22,06,15,14.60
2018,07,22,06,16,14.60
2018,07,22,06,17,14.60
2018,07,22,06,18,14.60
2018,07,22,06,19,14.60
2018,07,22,06,20,14.60
2018,07,22,06,21,14.60
2018,07,22,06,22,14.60
2018,07,22,06,23,14.60
2018,07,22,06,24,14.60
2018,07,22,06,25,14.60
2018,07,22,06,26,14.60
2018,07,22,06,27,14.60
2018,07,22,06,28,14.60
2018,07,22,06,29,14.70
2018,07,22,06,30,14.70
2018,07,22,06,31,14.70
2018,07,22,06,32,14.70
2018,07,22,06,33,14.60
2018,07,22,06,34,14.60
2018,07,22,06,35,14.60
2018,07,22,06,36,14.60
2018,07,22,06,37,14.60
2018,07,22,06,38,14.60
2018,07,22,06,39,14.60
2018,07,22,06,40,14.60
2018,07,22,06,41,14.60
2018,07,22,06,42,14.60
2018,07,22,06,43,14.60
2018,07,22,06,44,14.60
2018,07,22,06,45,14.60
2018,07,22,06,46,14.60
2018,07,22,06,47,14.60
2018,07,22,06,48,14.60
2018,07,22,06,49,14.60
2018,07,22,06,50,14.60
2018,07,22,06,51,14.60
2018,07,22,06,52,14.60
2018,07,22,06,53,14.60
2018,07,22,06,54,14.60
2018,07,22,06,55,14.70
2018,07,22,06,56,14.70
2018,07,22,06,57,14.70
2018,07,22,06,58,14.70
2018,07,22,06,59,14.70
2018,07,22,07,00,14.80
2018,07,22,07,01,14.80
2018,07,22,07,02,14.80
2018,07,22,07,03,14.80
2018,07,22,07,04,14.80
2018,07,22,07,05,14.80
2018,07,22,07,06,14.90
2018,07,22,07,07,14.90
2018,07,22,07,08,14.90
2018,07,22,07,09,14.90
2018,07,22,07,10,14.90
2018,07,22,07,11,14.90
2018,07,22,07,12,14.90
2018,07,22,07,13,15.00
2018,07,22,07,14,15.00
2018,07,22,07,15,15.00
2018,07,22,07,16,15.10
2018,07,22,07,17,15.10
2018,07,22,07,18,15.10
2018,07,22,07,19,15.10
2018,07,22,07,20,15.10
2018,07,22,07,21,15.10
2018,07,22,07,22,15.10
2018,07,22,07,23,15.10
2018,07,22,07,24,15.20
2018,07,22,07,25,15.20
2018,07,22,07,26,15.20
2018,07,22,07,27,15.20
2018,07,22,07,28,15.20
2018,07,22,07,29,15.20
2018,07,22,07,30,15.20
2018,07,22,07,31,15.20
2018,07,22,07,32,15.30
2018,07,22,07,33,15.30
2018,07,22,07,34,15.30
2018,07,22,07,35,15.30
2018,07,22,07,36,15.30
2018,07,22,07,37,15.30
2018,07,22,07,38,15.30
2018,07,22,07,39,15.30
2018,07,22,07,40,15.30
2018,07,22,07,41,15.30
2018,07,22,07,42,15.30
2018,07,22,07,43,15.30
2018,07,22,07,44,15.40
2018,07,22,07,45,15.40
2018,07,22,07,46,15.40
2018,07,22,07,47,15.40
2018,07,22,07,48,15.40
2018,07,22,07,49,15.40
2018,07,22,07,50,15.40
2018,07,22,07,51,15.40
2018,07,22,07,52,15.50
2018,07,22,07,53,15.50
2018,07,22,07,54,15.60
2018,07,22,07,55,15.60
2018,07,22,07,56,15.60
2018,07,22,07,57,15.60
2018,07,22,07,58,15.60
2018,07,22,07,59,15.60
2018,07,22,08,00,15.60
2018,07,22,08,01,15.60
2018,07,22,08,02,15.60
2018,07,22,08,03,15.60
2018,07,22,08,04,15.60
2018,07,22,08,05,15.60
2018,07,22,08,06,15.60
2018,07,22,08,07,15.60
2018,07,22,08,08,15.60
2018,07,22,08,09,15.60
2018,07,22,08,10,15.60
2018,07,22,08,11,15.60
2018,07,22,08,12,15.60
2018,07,22,08,13,15.70
2018,07,22,08,14,15.70
2018,07,22,08,15,15.80
2018,07,22,08,16,15.80
2018,07,22,08,17,15.90
2018,07,22,08,18,15.90
2018,07,22,08,19,16.00
2018,07,22,08,20,16.00
2018,07,22,08,21,16.10
2018,07,22,08,22,16.10
2018,07,22,08,23,16.20
2018,07,22,08,24,16.30
2018,07,22,08,25,16.30
2018,07,22,08,26,16.40
2018,07,22,08,27,16.40
2018,07,22,08,28,16.50
2018,07,22,08,29,16.60
2018,07,22,08,30,16.60
2018,07,22,08,31,16.60
2018,07,22,08,32,16.60
2018,07,22,08,33,16.60
2018,07,22,08,34,16.70
2018,07,22,08,35,16.70
2018,07,22,08,36,16.70
2018,07,22,08,37,16.70
2018,07,22,08,38,16.70
2018,07,22,08,39,16.70
2018,07,22,08,40,16.70
2018,07,22,08,41,16.70
2018,07,22,08,42,16.70
2018,07,22,08,43,16.70
2018,07,22,08,44,16.70
2018,07,22,08,45,16.70
2018,07,22,08,46,16.80
2018,07,22,08,47,16.80
2018,07,22,08,48,16.90
2018,07,22,08,49,16.90
2018,07,22,08,50,17.00
2018,07,22,08,51,17.00
2018,07,22,08,52,17.10
2018,07,22,08,53,17.10
2018,07,22,08,54,17.20
2018,07,22,08,55,17.30
2018,07,22,08,56,17.30
2018,07,22,08,57,17.30
2018,07,22,08,58,17.40
2018,07,22,08,59,17.40
2018,07,22,09,00,17.40
2018,07,22,09,01,17.40
2018,07,22,09,02,17.40
2018,07,22,09,03,17.30
2018,07,22,09,04,17.20
2018,07,22,09,05,17.20
2018,07,22,09,06,17.20
2018,07,22,09,07,17.20
2018,07,22,09,08,17.20
2018,07,22,09,09,17.30
2018,07,22,09,10,17.30
2018,07,22,09,11,17.30
2018,07,22,09,12,17.30
2018,07,22,09,13,17.40
2018,07,22,09,14,17.40
2018,07,22,09,15,17.50
2018,07,22,09,16,17.50
2018,07,22,09,17,17.50
2018,07,22,09,18,17.50
2018,07,22,09,19,17.40
2018,07,22,09,20,17.40
2018,07,22,09,21,17.40
2018,07,22,09,22,17.50
2018,07,22,09,23,17.50
2018,07,22,09,24,17.50
2018,07,22,09,25,17.60
2018,07,22,09,26,17.60
2018,07,22,09,27,17.50
2018,07,22,09,28,17.50
2018,07,22,09,29,17.50
2018,07,22,09,30,17.50
2018,07,22,09,31,17.60
2018,07,22,09,32,17.60
2018,07,22,09,33,17.60
2018,07,22,09,34,17.60
2018,07,22,09,35,17.60
2018,07,22,09,36,17.60
2018,07,22,09,37,17.60
2018,07,22,09,38,17.60
2018,07,22,09,39,17.60
2018,07,22,09,40,17.50
2018,07,22,09,41,17.40
2018,07,22,09,42,17.30
2018,07,22,09,43,17.30
2018,07,22,09,44,17.40
2018,07,22,09,45,17.40
2018,07,22,09,46,17.40
2018,07,22,09,47,17.40
2018,07,22,09,48,17.40
2018,07,22,09,49,17.50
2018,07,22,09,50,17.60
2018,07,22,09,51,17.70
2018,07,22,09,52,17.80
2018,07,22,09,53,17.90
2018,07,22,09,54,17.90
2018,07,22,09,55,17.90
2018,07,22,09,56,18.00
2018,07,22,09,57,18.00
2018,07,22,09,58,18.00
2018,07,22,09,59,18.00
2018,07,22,10,00,18.10
2018,07,22,10,01,18.10
2018,07,22,10,02,18.10
2018,07,22,10,03,18.10
2018,07,22,10,04,18.20
2018,07,22,10,05,18.30
2018,07,22,10,06,18.40
2018,07,22,10,07,18.50
2018,07,22,10,08,18.60
2018,07,22,10,09,18.70
2018,07,22,10,10,18.70
2018,07,22,10,11,18.70
2018,07,22,10,12,18.70
2018,07,22,10,13,18.60
2018,07,22,10,14,18.70
2018,07,22,10,15,18.70
2018,07,22,10,16,18.80
2018,07,22,10,17,18.90
2018,07,22,10,18,18.80
2018,07,22,10,19,18.90
2018,07,22,10,20,18.90
2018,07,22,10,21,18.90
2018,07,22,10,22,18.90
2018,07,22,10,23,18.90
2018,07,22,10,24,18.90
2018,07,22,10,25,18.90
2018,07,22,10,26,18.90
2018,07,22,10,27,18.90
2018,07,22,10,28,18.90
2018,07,22,10,29,18.90
2018,07,22,10,30,19.00
2018,07,22,10,31,19.10
2018,07,22,10,32,19.20
2018,07,22,10,33,19.30
2018,07,22,10,34,19.40
2018,07,22,10,35,19.40
2018,07,22,10,36,19.40
2018,07,22,10,37,19.40
2018,07,22,10,38,19.50
2018,07,22,10,39,19.40
2018,07,22,10,40,19.30
2018,07,22,10,41,19.20
2018,07,22,10,42,19.20
2018,07,22,10,43,19.20
2018,07,22,10,44,19.30
2018,07,22,10,45,19.30
2018,07,22,10,46,19.30
2018,07,22,10,47,19.40
2018,07,22,10,48,19.40
2018,07,22,10,49,19.50
2018,07,22,10,50,19.50
2018,07,22,10,51,19.60
2018,07,22,10,52,19.70
2018,07,22,10,53,19.80
2018,07,22,10,54,19.90
2018,07,22,10,55,20.00
2018,07,22,10,56,20.20
2018,07,22,10,57,20.30
2018,07,22,10,58,20.40
2018,07,22,10,59,20.60
2018,07,22,11,00,20.70
2018,07,22,11,01,20.90
2018,07,22,11,02,20.90
2018,07,22,11,03,20.90
2018,07,22,11,04,20.80
2018,07,22,11,05,20.80
2018,07,22,11,06,20.80
2018,07,22,11,07,20.80
2018,07,22,11,08,20.80
2018,07,22,11,09,20.80
2018,07,22,11,10,20.80
2018,07,22,11,11,20.80
2018,07,22,11,12,20.80
2018,07,22,11,13,20.80
2018,07,22,11,14,20.90
2018,07,22,11,15,20.90
2018,07,22,11,16,20.90
2018,07,22,11,17,21.00
2018,07,22,11,18,21.00
2018,07,22,11,19,21.00
2018,07,22,11,20,20.90
2018,07,22,11,21,20.90
2018,07,22,11,22,20.90
2018,07,22,11,23,20.90
2018,07,22,11,24,21.00
2018,07,22,11,25,21.10
2018,07,22,11,26,21.10
2018,07,22,11,27,21.20
2018,07,22,11,28,21.30
2018,07,22,11,29,21.40
2018,07,22,11,30,21.40
2018,07,22,11,31,21.50
2018,07,22,11,32,21.50
2018,07,22,11,33,21.60
2018,07,22,11,34,21.60
2018,07,22,11,35,21.70
2018,07,22,11,36,21.70
2018,07,22,11,37,21.70
2018,07,22,11,38,21.70
2018,07,22,11,39,21.70
2018,07,22,11,40,21.80
2018,07,22,11,41,21.90
2018,07,22,11,42,21.90
2018,07,22,11,43,22.00
2018,07,22,11,44,22.00
2018,07,22,11,45,22.10
2018,07,22,11,46,22.10
2018,07,22,11,47,22.20
2018,07,22,11,48,22.20
2018,07,22,11,49,22.30
2018,07,22,11,50,22.30
2018,07,22,11,51,22.40
2018,07,22,11,52,22.40
2018,07,22,11,53,22.50
2018,07,22,11,54,22.60
2018,07,22,11,55,22.50
2018,07,22,11,56,22.40
2018,07,22,11,57,22.30
2018,07,22,11,58,22.30
2018,07,22,11,59,22.30
2018,07,22,12,00,22.40
2018,07,22,12,01,22.40
2018,07,22,12,02,22.50
2018,07,22,12,03,22.60
2018,07,22,12,04,22.70
2018,07,22,12,05,22.70
2018,07,22,12,06,22.70
2018,07,22,12,07,22.70
2018,07,22,12,08,22.80
2018,07,22,12,09,22.80
2018,07,22,12,10,22.80
2018,07,22,12,11,22.80
2018,07,22,12,12,22.80
2018,07,22,12,13,22.80
2018,07,22,12,14,22.80
2018,07,22,12,15,22.80
2018,07,22,12,16,22.80
2018,07,22,12,17,22.70
2018,07,22,12,18,22.70
2018,07,22,12,19,22.70
2018,07,22,12,20,22.80
2018,07,22,12,21,22.90
2018,07,22,12,22,23.00
2018,07,22,12,23,23.00
2018,07,22,12,24,22.90
2018,07,22,12,25,23.00
2018,07,22,12,26,22.90
2018,07,22,12,27,22.80
2018,07,22,12,28,22.70
2018,07,22,12,29,22.70
2018,07,22,12,30,22.70
2018,07,22,12,31,22.90
2018,07,22,12,32,23.00
2018,07,22,12,33,23.10
2018,07,22,12,34,23.20
2018,07,22,12,35,23.20
2018,07,22,12,36,23.20
2018,07,22,12,37,23.20
2018,07,22,12,38,23.30
2018,07,22,12,39,23.30
2018,07,22,12,40,23.20
2018,07,22,12,41,23.00
2018,07,22,12,42,22.80
2018,07,22,12,43,22.70
2018,07,22,12,44,22.60
2018,07,22,12,45,22.60
2018,07,22,12,46,22.70
2018,07,22,12,47,22.70
2018,07,22,12,48,22.60
2018,07,22,12,49,22.60
2018,07,22,12,50,22.60
2018,07,22,12,51,22.70
2018,07,22,12,52,22.70
2018,07,22,12,53,22.80
2018,07,22,12,54,22.80
2018,07,22,12,55,22.80
2018,07,22,12,56,22.80
2018,07,22,12,57,22.80
2018,07,22,12,58,22.80
2018,07,22,12,59,22.80
2018,07,22,13,00,22.90
2018,07,22,13,01,22.90
2018,07,22,13,02,22.90
2018,07,22,13,03,22.90
2018,07,22,13,04,22.90
2018,07,22,13,05,23.00
2018,07,22,13,06,22.90
2018,07,22,13,07,23.00
2018,07,22,13,08,23.00
2018,07,22,13,09,23.20
2018,07,22,13,10,23.30
2018,07,22,13,11,23.30
2018,07,22,13,12,23.40
2018,07,22,13,13,23.40
2018,07,22,13,14,23.40
2018,07,22,13,15,23.50
2018,07,22,13,16,23.60
2018,07,22,13,17,23.70
2018,07,22,13,18,23.90
2018,07,22,13,19,24.00
2018,07,22,13,20,24.00
2018,07,22,13,21,24.10
2018,07,22,13,22,24.20
2018,07,22,13,23,24.30
2018,07,22,13,24,24.30
2018,07,22,13,25,24.30
2018,07,22,13,26,24.30
2018,07,22,13,27,24.40
2018,07,22,13,28,24.40
2018,07,22,13,29,24.50
2018,07,22,13,30,24.60
2018,07,22,13,31,24.60
2018,07,22,13,32,24.70
2018,07,22,13,33,24.80
2018,07,22,13,34,24.90
2018,07,22,13,35,25.00
2018,07,22,13,36,25.10
2018,07,22,13,37,25.10
2018,07,22,13,38,25.00
2018,07,22,13,39,25.00
2018,07,22,13,40,25.00
2018,07,22,13,41,25.10
2018,07,22,13,42,25.10
2018,07,22,13,43,25.10
2018,07,22,13,44,25.20
2018,07,22,13,45,25.20
2018,07,22,13,46,25.10
2018,07,22,13,47,25.10
2018,07,22,13,48,25.10
2018,07,22,13,49,25.20
2018,07,22,13,50,25.20
2018,07,22,13,51,25.20
2018,07,22,13,52,25.10
2018,07,22,13,53,25.10
2018,07,22,13,54,25.10
2018,07,22,13,55,25.20
2018,07,22,13,56,25.20
2018,07,22,13,57,25.20
2018,07,22,13,58,25.30
2018,07,22,13,59,25.30
2018,07,22,14,00,25.50
2018,07,22,14,01,25.50
2018,07,22,14,02,25.40
2018,07,22,14,03,25.40
2018,07,22,14,04,25.40
2018,07,22,14,05,25.40
2018,07,22,14,06,25.40
2018,07,22,14,07,25.40
2018,07,22,14,08,25.40
2018,07,22,14,09,25.40
2018,07,22,14,10,25.50
2018,07,22,14,11,25.50
2018,07,22,14,12,25.70
2018,07,22,14,13,25.90
2018,07,22,14,14,26.00
2018,07,22,14,15,26.00
2018,07,22,14,16,26.10
2018,07,22,14,17,26.20
2018,07,22,14,18,26.40
2018,07,22,14,19,26.50
2018,07,22,14,20,26.60
2018,07,22,14,21,26.60
2018,07,22,14,22,26.50
2018,07,22,14,23,26.50
2018,07,22,14,24,26.40
2018,07,22,14,25,26.20
2018,07,22,14,26,26.10
2018,07,22,14,27,26.00
2018,07,22,14,28,25.80
2018,07,22,14,29,25.70
2018,07,22,14,30,25.70
2018,07,22,14,31,25.70
2018,07,22,14,32,25.60
2018,07,22,14,33,25.60
2018,07,22,14,34,25.70
2018,07,22,14,35,25.80
2018,07,22,14,36,25.80
2018,07,22,14,37,25.80
2018,07,22,14,38,25.80
2018,07,22,14,39,25.90
2018,07,22,14,40,25.90
2018,07,22,14,41,26.00
2018,07,22,14,42,26.00
2018,07,22,14,43,25.90
2018,07,22,14,44,25.80
2018,07,22,14,45,25.60
2018,07,22,14,46,25.50
2018,07,22,14,47,25.50
2018,07,22,14,48,25.50
2018,07,22,14,49,25.60
2018,07,22,14,50,25.70
2018,07,22,14,51,25.70
2018,07,22,14,52,25.70
2018,07,22,14,53,25.80
2018,07,22,14,54,25.80
2018,07,22,14,55,25.70
2018,07,22,14,56,25.70
2018,07,22,14,57,25.70
2018,07,22,14,58,25.80
2018,07,22,14,59,25.80
2018,07,22,15,00,25.70
2018,07,22,15,01,25.60
2018,07,22,15,02,25.60
2018,07,22,15,03,25.60
2018,07,22,15,04,25.70
2018,07,22,15,05,25.70
2018,07,22,15,06,25.70
2018,07,22,15,07,25.70
2018,07,22,15,08,25.70
2018,07,22,15,09,25.80
2018,07,22,15,10,25.90
2018,07,22,15,11,26.00
2018,07,22,15,12,26.00
2018,07,22,15,13,26.10
2018,07,22,15,14,26.10
2018,07,22,15,15,26.20
2018,07,22,15,16,26.20
2018,07,22,15,17,26.30
2018,07,22,15,18,26.20
2018,07,22,15,19,26.00
2018,07,22,15,20,25.90
2018,07,22,15,21,25.90
2018,07,22,15,22,25.90
2018,07,22,15,23,25.90
2018,07,22,15,24,25.90
2018,07,22,15,25,26.00
2018,07,22,15,26,26.10
2018,07,22,15,27,26.20
2018,07,22,15,28,26.30
2018,07,22,15,29,26.40
2018,07,22,15,30,26.50
2018,07,22,15,31,26.70
2018,07,22,15,32,26.80
2018,07,22,15,33,26.80
2018,07,22,15,34,26.80
2018,07,22,15,35,26.90
2018,07,22,15,36,26.90
2018,07,22,15,37,26.80
2018,07,22,15,38,26.80
2018,07,22,15,39,26.80
2018,07,22,15,40,26.80
2018,07,22,15,41,26.90
2018,07,22,15,42,26.90
2018,07,22,15,43,27.00
2018,07,22,15,44,27.00
2018,07,22,15,45,27.00
2018,07,22,15,46,27.00
2018,07,22,15,47,26.90
2018,07,22,15,48,26.90
2018,07,22,15,49,26.90
2018,07,22,15,50,27.00
2018,07,22,15,51,27.10
2018,07,22,15,52,27.20
2018,07,22,15,53,27.20
2018,07,22,15,54,27.10
2018,07,22,15,55,27.00
2018,07,22,15,56,26.90
2018,07,22,15,57,26.80
2018,07,22,15,58,26.80
2018,07,22,15,59,26.70
2018,07,22,16,00,26.70
2018,07,22,16,01,26.80
2018,07,22,16,02,26.80
2018,07,22,16,03,26.80
2018,07,22,16,04,26.80
2018,07,22,16,05,26.80
2018,07,22,16,06,26.80
2018,07,22,16,07,26.90
2018,07,22,16,08,26.90
2018,07,22,16,09,26.90
2018,07,22,16,10,26.80
2018,07,22,16,11,26.70
2018,07,22,16,12,26.70
2018,07,22,16,13,26.70
2018,07,22,16,14,26.70
2018,07,22,16,15,26.70
2018,07,22,16,16,26.60
2018,07,22,16,17,26.50
2018,07,22,16,18,26.40
2018,07,22,16,19,26.40
2018,07,22,16,20,26.40
2018,07,22,16,21,26.50
2018,07,22,16,22,26.70
2018,07,22,16,23,26.80
2018,07,22,16,24,26.90
2018,07,22,16,25,26.90
2018,07,22,16,26,26.90
2018,07,22,16,27,26.90
2018,07,22,16,28,26.90
2018,07,22,16,29,26.90
2018,07,22,16,30,27.00
2018,07,22,16,31,27.00
2018,07,22,16,32,27.10
2018,07,22,16,33,27.10
2018,07,22,16,34,27.20
2018,07,22,16,35,27.10
2018,07,22,16,36,27.10
2018,07,22,16,37,27.10
2018,07,22,16,38,27.10
2018,07,22,16,39,27.10
2018,07,22,16,40,27.10
2018,07,22,16,41,27.00
2018,07,22,16,42,27.00
2018,07,22,16,43,26.90
2018,07,22,16,44,26.90
2018,07,22,16,45,26.80
2018,07,22,16,46,26.70
2018,07,22,16,47,26.60
2018,07,22,16,48,26.60
2018,07,22,16,49,26.60
2018,07,22,16,50,26.60
2018,07,22,16,51,26.60
2018,07,22,16,52,26.70
2018,07,22,16,53,26.70
2018,07,22,16,54,26.60
2018,07,22,16,55,26.60
2018,07,22,16,56,26.50
2018,07,22,16,57,26.40
2018,07,22,16,58,26.30
2018,07,22,16,59,26.30
2018,07,22,17,00,26.30
2018,07,22,17,01,26.30
2018,07,22,17,02,26.40
2018,07,22,17,03,26.50
2018,07,22,17,04,26.50
2018,07,22,17,05,26.60
2018,07,22,17,06,26.60
2018,07,22,17,07,26.60
2018,07,22,17,08,26.80
2018,07,22,17,09,26.90
2018,07,22,17,10,26.90
2018,07,22,17,11,27.00
2018,07,22,17,12,27.10
2018,07,22,17,13,27.20
2018,07,22,17,14,27.30
2018,07,22,17,15,27.40
2018,07,22,17,16,27.40
2018,07,22,17,17,27.50
2018,07,22,17,18,27.60
2018,07,22,17,19,27.60